Location: Fredericton
(45.9636°N, 66.6431°W)
Time: 19:48:41
(UTC-04:00)

ISS - Pass Details

Date: 23 October 2021
Orbit: 417 x 422 km, 51.6° (Epoch: 07 December)

Event Time Altitude Azimuth Distance (km) Brightness Sun altitude
Exits shadow 05:57:15 11° 173° (S) 1,410 -1.1 -21.0°
Maximum altitude 05:59:10 17° 135° (SE) 1,151 -1.1 -20.7°
Drops below altitude 10° 06:01:24 10° 93° (E) 1,497 0.2 -20.3°
Sets 06:04:00 0° 72° (ENE) 2,364 1.5 -19.9°
